Voltar ao catálogo

COSMOS 1275 DEB

AtivoPO
NORAD 42187·DEBRIS·🇷🇺 Russia

Lançado Jun 4, 1981 de Plesetsk Cosmodrome

Loading…

Próximas Passagens (próximas 24 horas)

TLE

EnvelhecendoSource: Space-Track

Época: Sep 6, 2026, 21:38 UTC

1 42187U 81053TB  26249.90165981  .00001473  00000-0  88355-3 0  9998
2 42187  82.9632  97.4116 0056163 120.1821 240.4932 14.05549191651452

Acompanhe COSMOS 1275 DEB em tempo real com AllMySat

Download on the App Store